Wind_Speed
14 13 14 16 16 17 17 17 17 17 18 19 18 17 16 16 15 15 15 14 12 11 12 11 10 10 10 9 9 11 12 14 14 13 14 13 13 15 16 16 18 19 22 23 24
16 15 15 15 17 19 18 18 18 17 18 19 19 17 15 16 16 16 16 15 14 11 13 13 12 11 10 11 10 12 13 15 15 15 15 14 14 14 15 16 18 20 23 25 25
16 16 17 23 18 17 18 17 17 16 18 17 17 16 16 16 16 17 17 17 15 14 14 15 15 14 13 13 13 13 15 17 17 16 16 15 15 15 14 16 18 21 23 25 24
18 17 18 20 21 19 17 19 18 17 17 17 16 15 16 17 18 18 19 18 17 16 16 15 17 17 16 17 17 17 17 18 18 18 17 16 15 16 16 17 19 22 23 23 23
20 19 19 22 22 21 20 20 19 18 18 17 16 16 16 18 18 19 19 19 18 18 17 16 18 20 19 19 20 18 19 19 19 19 18 17 16 17 18 20 21 21 23 21 27
23 23 20 23 23 21 21 21 21 20 19 18 17 17 17 18 19 20 20 20 19 19 20 18 19 22 23 22 22 22 21 20 20 20 19 18 18 18 18 20 21 22 23 24 28
29 25 24 24 23 23 22 22 23 23 22 21 20 19 19 18 19 20 20 20 20 21 21 20 20 23 24 25 25 25 24 22 21 20 20 19 18 18 20 22 22 24 24 27 28
34 29 29 26 27 25 24 24 23 23 23 23 23 23 21 20 24 25 23 22 21 20 21 21 21 23 25 26 26 26 25 23 21 21 21 20 17 19 20 22 24 24 25 28 30
36 36 32 30 31 29 27 26 24 24 23 23 25 25 25 24 25 28 24 24 23 23 23 23 24 25 25 26 26 26 25 23 23 23 23 21 18 21 21 24 24 25 27 29 33
37 41 38 35 34 32 30 26 25 26 26 26 27 26 25 26 28 28 31 32 29 29 27 26 26 25 26 26 26 26 26 24 23 24 24 22 20 21 23 24 26 27 29 31 35
39 42 43 41 37 37 33 29 26 26 26 26 25 26 26 27 29 31 32 33 34 32 30 29 28 26 27 27 28 27 28 26 24 26 25 24 21 21 24 26 27 29 31 34 38
40 42 48 46 41 40 37 35 35 31 32 31 30 28 26 26 26 25 28 32 36 35 33 32 30 29 29 28 28 30 29 26 27 27 27 26 22 21 25 28 29 32 34 36 40
43 43 47 50 47 41 42 40 40 40 39 38 35 32 29 29 28 28 29 30 31 35 35 33 30 32 31 30 29 30 30 28 28 31 29 29 24 22 26 31 33 35 37 39 43
48 45 46 51 52 43 41 44 42 46 49 43 41 35 30 29 29 30 30 28 29 31 33 34 33 32 32 33 31 30 31 29 31 33 29 30 31 22 27 34 35 36 38 41 44
52 49 47 54 51 47 42 48 45 49 54 46 41 34 32 33 30 29 28 28 27 30 32 32 33 34 33 32 33 30 31 31 33 34 32 29 35 27 30 35 36 37 40 41 44
56 54 51 52 52 48 48 51 50 51 62 50 38 29 30 29 30 27 26 26 26 27 29 31 33 34 31 34 34 33 33 33 35 35 37 31 34 30 33 37 37 39 41 43 46
61 59 56 52 57 53 54 55 55 62 56 52 43 36 35 32 32 31 28 27 26 27 27 29 30 32 31 34 35 33 33 36 38 37 39 36 38 32 35 37 38 40 42 43 46
65 65 63 58 59 60 59 60 62 64 60 55 45 38 34 32 29 30 30 27 27 26 25 27 27 28 28 31 34 36 33 34 38 40 40 39 40 36 35 36 38 40 42 45 46
70 71 69 63 64 66 65 65 64 61 56 52 47 41 38 38 37 35 32 30 28 27 26 26 25 26 27 29 30 30 31 32 38 40 44 42 43 36 33 36 39 43 44 45 47
68 75 71 70 70 71 69 67 66 62 59 53 47 45 40 40 39 35 35 32 27 30 28 27 28 27 28 30 30 32 31 35 38 43 45 45 47 34 35 35 42 45 44 46 48
64 64 65 77 78 75 72 70 66 66 61 56 47 48 44 42 39 37 37 34 31 30 28 29 33 30 32 30 32 35 36 37 39 43 46 50 50 34 37 38 43 46 47 48 49
67 69 68 79 85 80 73 71 66 67 66 58 54 47 46 44 42 40 38 38 34 31 31 31 35 35 32 33 36 38 38 39 42 45 49 51 46 34 35 37 42 47 49 51 47
71 73 73 75 83 81 77 73 71 70 68 63 58 52 48 48 46 43 41 38 36 35 35 32 38 37 35 35 36 39 39 42 46 49 51 50 42 34 35 39 45 48 52 50 44
73 82 79 76 69 71 77 78 74 74 69 67 65 57 52 53 49 48 44 40 39 37 38 39 41 41 38 39 38 41 40 42 44 47 46 50 44 33 37 42 46 48 49 46 48
83 88 87 82 77 76 79 80 79 76 74 72 67 60 54 54 52 49 46 43 41 42 44 45 46 43 42 42 43 45 47 42 42 37 45 36 39 28 36 41 46 46 48 49 45
87 88 89 85 82 78 74 73 76 77 74 72 67 60 58 55 52 50 47 45 45 47 49 51 52 45 45 45 45 47 50 42 41 38 36 31 34 33 38 42 46 46 50 47 45
91 92 87 86 88 88 82 72 69 74 77 73 70 66 66 59 56 53 55 50 51 51 51 53 51 47 49 46 45 51 42 41 39 41 34 36 32 40 42 43 45 51 50 44 43
Wind_Direction
253 246 231 236 250 242 237 234 237 239 245 245 246 252 256 257 248 243 245 245 244 253 266 262 258 277 288 293 311 313 312 306 307 316 322 321 324 323 328 331 331 332 332 328 328
261 247 241 239 237 239 237 238 241 243 247 245 248 254 252 253 247 245 246 247 248 251 263 261 252 267 275 290 304 314 317 311 314 314 318 316 316 319 321 325 328 332 330 329 331
259 253 240 246 252 243 241 238 237 238 238 244 249 252 252 247 246 247 248 249 251 254 258 263 256 266 272 281 291 301 309 314 314 312 313 310 309 314 315 319 323 326 328 328 331
258 254 249 241 235 239 251 240 231 231 237 240 247 250 253 250 247 250 253 252 254 258 260 259 257 264 270 278 288 297 300 302 304 304 305 302 304 310 311 315 317 321 324 325 326
253 253 248 244 240 235 236 237 234 231 234 240 245 248 250 250 250 253 257 259 259 260 259 260 255 260 267 275 282 292 297 298 298 298 301 297 299 305 306 313 315 315 317 318 319
244 252 247 246 243 239 237 240 238 235 239 244 248 252 252 254 256 255 258 259 261 263 263 262 261 262 267 273 279 286 291 295 293 292 295 294 297 300 300 304 308 310 311 312 316
242 244 247 246 243 240 239 239 242 242 243 243 250 252 255 258 261 262 262 262 265 266 264 263 263 264 268 273 278 284 288 291 288 287 291 292 297 294 297 305 308 309 308 311 314
245 239 243 243 243 241 242 241 243 245 246 246 248 253 255 259 271 268 268 268 264 262 265 265 266 266 269 273 277 281 285 287 282 283 286 289 294 295 297 302 304 306 305 308 311
242 238 238 242 244 240 239 242 242 245 248 249 250 250 254 253 253 266 268 268 265 265 265 268 269 269 272 273 277 280 283 284 280 281 283 287 290 294 295 300 306 307 305 307 311
246 238 236 236 244 245 241 238 244 248 250 253 255 256 257 259 260 260 260 265 268 266 266 266 268 272 274 274 277 277 281 281 283 282 284 286 288 291 296 301 306 307 307 310 312
249 244 238 237 238 244 244 243 240 245 246 248 253 259 259 260 262 263 262 259 262 263 264 263 265 270 271 273 275 278 280 284 283 280 279 280 282 286 293 300 304 308 310 313 314
248 247 243 240 236 241 244 246 246 243 247 250 253 255 257 263 268 273 271 264 260 261 262 263 264 264 265 266 270 276 281 284 280 278 276 278 280 286 294 300 305 309 313 314 316
249 252 247 240 239 240 242 243 249 251 252 253 253 254 259 265 272 277 278 273 262 258 259 262 262 263 266 267 269 274 278 279 279 275 276 280 278 286 295 299 305 309 310 313 316
246 249 249 240 241 237 243 245 247 253 256 252 255 256 260 264 268 274 275 272 264 260 260 259 260 263 263 266 268 272 277 275 274 274 278 278 283 288 292 299 305 309 310 313 316
244 244 246 244 239 239 241 247 246 253 254 254 251 258 261 260 266 266 270 272 271 262 260 261 259 258 260 267 269 272 272 273 273 274 276 278 282 289 294 299 303 309 311 315 318
241 242 243 244 239 238 238 242 245 248 250 250 251 252 258 256 258 259 267 268 270 269 267 265 264 263 265 266 267 271 274 272 272 275 276 279 281 294 295 297 301 308 310 315 317
240 240 241 239 237 233 239 243 245 245 246 252 252 253 255 255 262 262 263 266 269 269 271 268 265 262 261 264 266 266 269 271 272 274 277 280 281 293 294 295 302 309 311 315 317
242 240 240 238 232 232 236 241 242 246 246 252 250 250 251 253 259 259 259 263 266 269 270 269 265 265 266 266 268 265 262 265 274 276 278 279 288 294 296 297 305 307 311 315 316
244 240 240 238 232 231 234 241 247 249 252 250 252 251 249 254 257 260 259 260 263 268 269 269 271 266 265 263 262 266 264 267 271 277 282 287 289 293 297 296 304 307 311 313 316
241 242 240 236 229 229 236 243 246 246 249 247 248 249 246 249 252 256 255 259 264 265 266 268 268 268 268 265 266 267 265 267 272 278 281 286 286 298 295 303 304 306 311 313 315
241 240 242 236 227 227 237 240 245 247 246 248 244 247 247 249 249 253 256 257 258 261 265 270 271 270 267 269 266 264 266 268 273 275 283 286 287 304 303 304 304 306 310 313 314
246 244 243 238 230 235 238 238 241 245 248 245 247 244 248 247 248 250 256 253 256 260 265 268 271 269 270 267 266 267 271 272 275 278 277 279 290 304 302 302 303 303 309 310 312
247 243 242 242 236 239 237 238 240 241 243 247 245 242 244 249 247 246 254 252 254 255 260 265 268 269 267 271 275 275 273 272 274 274 276 279 291 299 299 299 299 302 307 309 310
243 241 238 240 241 242 242 240 239 242 243 244 245 245 242 245 246 245 248 250 252 255 260 260 264 267 271 273 274 274 273 269 270 275 284 282 289 292 295 297 296 301 305 307 308
245 238 237 240 245 243 240 237 238 240 242 244 244 246 248 246 246 243 246 248 249 252 254 257 261 264 267 269 273 276 275 274 274 281 282 301 287 290 290 289 295 301 302 306 307
242 245 242 242 240 238 241 240 241 243 244 246 248 250 250 246 247 247 245 250 248 248 254 256 258 262 265 268 269 272 271 280 282 280 285 293 292 297 288 296 297 300 305 309 302
236 241 244 246 240 237 239 241 242 241 243 246 249 250 250 247 245 242 244 244 246 248 251 257 260 261 262 266 270 270 279 279 285 284 286 287 292 287 293 295 294 301 307 302 298
Height
5800 5801 5802 5803 5805 5806 5808 5809 5811 5813 5815 5818 5819 5819 5820 5821 5821 5822 5823 5824 5824 5824 5825 5825 5826 5826 5825 5824 5823 5823 5823 5822 5822 5821 5820 5819 5818 5817 5816 5814 5812 5810 5809 5807 5804
5797 5798 5799 5800 5802 5803 5804 5806 5808 5810 5812 5814 5815 5816 5816 5818 5818 5820 5821 5821 5821 5822 5823 5823 5823 5823 5822 5822 5822 5821 5821 5820 5819 5819 5818 5817 5816 5815 5814 5812 5809 5807 5805 5803 5801
5792 5794 5795 5797 5799 5800 5801 5802 5804 5806 5808 5810 5811 5812 5813 5814 5816 5817 5818 5818 5819 5819 5819 5820 5821 5821 5820 5819 5819 5819 5819 5818 5817 5816 5816 5815 5813 5812 5811 5809 5807 5805 5802 5800 5798
5789 5789 5791 5792 5793 5796 5798 5800 5800 5802 5804 5805 5807 5808 5809 5811 5814 5814 5815 5815 5816 5816 5816 5816 5818 5819 5818 5817 5817 5816 5816 5815 5814 5813 5812 5811 5810 5809 5808 5806 5804 5802 5799 5796 5794
5784 5785 5786 5788 5790 5791 5794 5796 5798 5799 5800 5801 5802 5804 5806 5808 5809 5810 5812 5812 5813 5813 5813 5813 5813 5814 5814 5814 5814 5813 5813 5812 5811 5810 5810 5809 5807 5806 5805 5803 5801 5798 5795 5792 5790
5779 5781 5782 5784 5786 5788 5790 5793 5795 5795 5797 5798 5799 5801 5802 5805 5806 5807 5808 5809 5809 5809 5810 5809 5809 5810 5810 5810 5810 5809 5809 5808 5807 5806 5806 5805 5805 5803 5801 5798 5795 5793 5792 5789 5785
5773 5776 5777 5779 5781 5783 5785 5788 5790 5791 5792 5793 5795 5796 5799 5801 5802 5803 5804 5804 5805 5806 5806 5805 5805 5806 5806 5806 5805 5805 5805 5804 5803 5802 5801 5801 5801 5799 5796 5794 5792 5790 5788 5785 5781
5767 5769 5773 5774 5776 5778 5780 5782 5785 5786 5788 5789 5790 5793 5794 5795 5797 5799 5800 5801 5801 5801 5802 5801 5801 5801 5801 5801 5801 5800 5800 5799 5799 5798 5797 5797 5796 5795 5792 5790 5788 5786 5783 5779 5776
5759 5762 5766 5769 5771 5772 5775 5778 5779 5781 5783 5784 5786 5787 5790 5791 5792 5794 5794 5795 5796 5796 5796 5797 5797 5797 5797 5796 5796 5795 5794 5794 5793 5793 5792 5792 5792 5790 5787 5785 5783 5781 5778 5775 5772
5752 5755 5758 5760 5765 5768 5770 5772 5774 5775 5777 5779 5780 5783 5785 5786 5786 5787 5788 5790 5790 5790 5791 5790 5791 5792 5792 5791 5791 5789 5789 5789 5789 5789 5787 5787 5787 5785 5783 5780 5778 5776 5772 5769 5765
5745 5748 5750 5754 5757 5762 5765 5768 5769 5771 5771 5772 5775 5776 5778 5779 5780 5781 5782 5782 5783 5784 5784 5783 5785 5787 5786 5785 5785 5783 5783 5783 5784 5782 5781 5780 5780 5779 5777 5774 5772 5770 5767 5764 5760
5736 5740 5743 5746 5749 5754 5759 5761 5761 5763 5764 5765 5767 5770 5771 5773 5774 5774 5774 5775 5776 5776 5776 5777 5779 5779 5780 5779 5779 5777 5777 5779 5777 5775 5775 5774 5775 5775 5772 5769 5767 5764 5761 5757 5753
5727 5731 5734 5738 5743 5748 5751 5752 5754 5756 5755 5757 5759 5761 5764 5767 5768 5769 5768 5767 5767 5768 5768 5770 5773 5772 5774 5774 5773 5772 5771 5772 5772 5769 5769 5767 5769 5770 5768 5763 5761 5759 5755 5750 5746
5717 5720 5724 5728 5735 5739 5746 5743 5744 5746 5744 5747 5751 5755 5758 5760 5762 5762 5761 5760 5759 5761 5761 5762 5765 5766 5766 5767 5767 5767 5765 5766 5765 5763 5765 5762 5760 5767 5763 5758 5756 5752 5748 5744 5739
5706 5709 5713 5718 5725 5731 5738 5736 5733 5736 5730 5738 5742 5748 5751 5752 5754 5755 5754 5753 5754 5753 5755 5757 5758 5758 5758 5762 5762 5763 5760 5759 5758 5756 5758 5759 5752 5759 5756 5753 5750 5746 5741 5737 5732
5692 5697 5701 5707 5716 5723 5724 5724 5723 5724 5712 5723 5734 5741 5742 5744 5746 5747 5747 5747 5747 5747 5748 5750 5751 5752 5754 5754 5754 5755 5755 5752 5751 5751 5749 5752 5749 5753 5749 5745 5743 5740 5735 5730 5725
5678 5683 5690 5695 5703 5707 5711 5713 5712 5704 5708 5716 5726 5733 5735 5736 5739 5740 5741 5741 5741 5741 5743 5743 5744 5744 5746 5747 5747 5747 5747 5746 5745 5744 5742 5744 5741 5748 5742 5738 5736 5732 5727 5723 5717
5664 5669 5675 5681 5687 5690 5696 5699 5693 5692 5698 5712 5719 5723 5726 5729 5731 5732 5733 5735 5735 5734 5736 5736 5737 5738 5739 5740 5741 5740 5741 5741 5737 5736 5736 5736 5734 5738 5735 5731 5727 5724 5720 5715 5710
5649 5653 5661 5668 5671 5674 5678 5680 5680 5686 5695 5705 5712 5714 5719 5720 5723 5724 5726 5728 5729 5729 5730 5729 5731 5731 5731 5731 5733 5735 5735 5735 5731 5729 5725 5727 5726 5729 5729 5724 5720 5715 5713 5707 5702
5631 5638 5648 5649 5649 5655 5663 5667 5671 5678 5681 5691 5702 5705 5708 5711 5714 5717 5717 5721 5723 5722 5723 5724 5724 5724 5726 5725 5727 5728 5730 5728 5726 5720 5718 5717 5713 5724 5720 5718 5711 5707 5705 5700 5694
5614 5620 5632 5629 5629 5634 5646 5652 5660 5666 5674 5681 5691 5695 5698 5702 5705 5708 5709 5714 5714 5715 5717 5717 5717 5720 5718 5720 5720 5720 5720 5721 5720 5716 5713 5708 5706 5718 5713 5710 5703 5698 5695 5691 5687
5600 5602 5613 5610 5609 5622 5636 5642 5650 5655 5662 5671 5677 5684 5688 5693 5696 5699 5701 5704 5708 5709 5710 5710 5708 5709 5712 5712 5711 5712 5713 5713 5710 5708 5703 5700 5700 5710 5706 5701 5696 5691 5688 5684 5679
5582 5585 5587 5590 5594 5610 5622 5630 5635 5640 5650 5656 5665 5673 5679 5683 5686 5688 5691 5696 5699 5701 5702 5703 5699 5700 5702 5705 5704 5703 5705 5704 5701 5697 5690 5692 5697 5701 5698 5693 5688 5684 5680 5676 5672
5564 5559 5564 5572 5589 5600 5609 5616 5622 5629 5638 5645 5650 5661 5667 5669 5675 5678 5682 5687 5689 5692 5693 5692 5691 5693 5695 5695 5695 5692 5694 5693 5691 5685 5689 5685 5690 5696 5689 5684 5679 5676 5672 5669 5664
5537 5540 5550 5560 5576 5584 5588 5599 5608 5616 5625 5632 5638 5644 5657 5660 5664 5668 5672 5677 5680 5683 5682 5681 5681 5684 5685 5685 5683 5681 5680 5683 5683 5686 5677 5686 5677 5688 5682 5676 5671 5669 5664 5661 5656
5517 5524 5537 5552 5558 5564 5570 5585 5597 5610 5615 5620 5628 5638 5643 5646 5652 5657 5663 5665 5669 5671 5670 5669 5668 5674 5674 5675 5674 5670 5667 5676 5677 5677 5674 5675 5674 5673 5668 5668 5663 5660 5655 5652 5647
5495 5506 5519 5529 5536 5541 5556 5580 5588 5593 5598 5608 5619 5622 5628 5635 5639 5643 5648 5652 5654 5656 5657 5657 5660 5664 5661 5665 5665 5654 5667 5668 5670 5666 5669 5666 5670 5663 5661 5659 5655 5651 5647 5643 5638